Lid_Strength_Index
3 3 3 2 2 1 1 1 1 2 1 2 2 2 2 2 1 0 0 0 0 0 0 1 1 1 1 1 1 2 2 3 2 3 3 3 2 2 1 1 1 0 0
4 3 3 2 2 2 2 1 1 2 1 2 1 1 2 1 1 0 0 0 0 0 0 0 1 1 2 1 2 2 2 2 2 3 4 5 4 3 2 2 1 1 0
5 4 3 3 2 2 2 2 1 2 1 2 1 1 2 2 1 1 1 0 0 -0 -0 0 0 1 1 1 2 1 2 3 2 3 3 5 6 4 3 3 2 1 1
4 4 4 3 3 2 2 1 1 2 1 1 1 2 2 3 3 1 2 1 0 0 1 0 1 1 0 1 1 0 2 3 3 2 2 3 4 5 5 4 3 2 2
4 4 4 3 2 2 2 1 1 1 1 1 1 1 2 2 2 2 2 1 1 0 0 0 1 1 1 1 1 1 1 2 2 3 3 3 3 3 5 6 4 3 2
4 4 3 3 3 2 2 2 2 1 1 1 2 1 2 2 2 2 2 2 1 1 1 0 1 1 1 1 1 1 1 1 2 2 2 3 4 4 4 5 5 4 3
5 4 4 4 3 3 2 2 2 2 1 1 2 2 1 2 2 2 1 2 1 1 1 1 1 1 1 1 0 1 1 1 1 2 2 2 3 4 3 4 4 5 3
5 4 4 4 3 3 2 2 2 2 1 1 1 2 2 1 2 2 2 1 1 1 1 1 1 1 1 0 1 1 1 1 1 1 2 2 2 2 4 4 4 5 5
5 4 4 4 3 3 3 2 2 2 2 1 1 1 1 1 2 1 2 1 1 0 1 0 1 1 1 1 1 1 2 1 2 1 2 1 2 2 2 4 4 4 6
5 4 4 4 3 2 2 2 2 2 2 1 1 1 1 1 1 1 1 2 1 1 1 1 1 1 1 1 1 2 1 1 1 1 1 2 1 2 1 1 4 4 5
5 5 4 4 3 3 3 3 2 2 2 1 1 1 1 1 1 2 1 1 1 1 1 0 1 1 1 1 1 1 1 1 2 2 2 2 2 2 2 2 2 3 4
5 5 4 4 4 3 3 3 2 2 2 1 1 1 1 1 1 1 2 2 1 1 1 1 0 1 1 1 1 1 1 2 1 2 2 2 1 2 2 2 2 3 3
5 5 4 4 4 3 3 3 2 2 2 1 1 1 1 1 1 1 1 2 2 1 0 1 1 1 1 1 1 1 1 1 1 1 2 2 2 2 2 2 2 2 2
5 5 5 4 4 3 3 4 2 2 2 1 2 2 2 1 1 1 1 1 2 2 1 1 1 0 1 1 1 1 1 1 1 1 1 1 1 2 2 2 2 2 2
6 6 6 5 4 3 4 3 3 2 1 2 2 2 1 1 1 1 1 1 1 1 2 1 1 1 1 1 1 1 1 1 1 1 1 1 1 1 2 2 2 2 2
7 6 5 5 4 4 3 3 2 2 2 2 2 2 1 1 1 2 2 2 1 1 2 1 1 1 1 3 4 1 1 1 1 2 1 1 1 2 3 4 4 2 3
6 7 7 5 4 4 3 3 2 2 2 2 2 2 2 2 2 1 2 2 2 2 1 1 1 1 1 3 4 3 1 1 1 1 1 1 0 1 1 3 4 4 4
5 6 6 5 5 3 3 3 2 2 2 2 2 2 2 2 2 2 2 2 2 2 2 2 1 1 1 4 4 4 2 1 1 1 1 1 1 1 1 1 1 2 2
5 5 5 5 4 4 4 3 2 2 3 3 3 2 2 2 2 2 2 1 2 2 2 3 3 2 1 5 5 5 2 1 1 1 1 1 1 3 5 2 2 2 2
5 4 4 5 5 5 4 3 3 4 4 2 2 2 3 2 2 2 2 1 1 2 2 2 3 4 2 6 6 5 1 2 1 1 1 5 2 5 7 2 2 2 2
6 4 4 4 5 4 5 4 4 5 4 3 3 3 2 2 1 2 1 1 2 2 2 2 2 2 2 2 8 7 1 1 2 2 1 1 6 8 9 8 1 2 1
5 4 5 4 5 4 5 5 5 5 4 4 3 3 3 1 1 2 2 2 2 2 2 2 2 1 2 6 7 8 7 3 1 2 1 1 7 9 9 8 7 7 7
5 3 4 4 4 4 5 6 6 6 5 4 4 4 3 2 1 2 2 2 2 2 3 3 3 2 1 1 8 9 9 8 3 1 2 6 9 10 9 9 8 8 4
5 4 3 5 4 5 5 6 5 6 6 6 5 4 4 4 2 1 2 2 2 3 3 3 3 2 2 2 1 4 6 8 6 4 2 4 6 7 6 6 7 6 4
5 4 3 3 4 6 5 6 6 6 8 7 6 5 4 4 4 3 2 2 2 2 3 2 2 3 3 2 4 3 2 2 4 4 2 2 3 3 4 5 4 5 5
5 4 3 3 4 7 8 7 8 8 8 8 7 6 6 4 4 5 3 10 11 11 11 10 5 2 6 9 11 12 12 11 12 5 2 3 2 3 2 2 3 4 5